Location: Chippewa Lake
(41.0698°N, 81.9010°W)
Time: 02:15:02
(UTC+00:00)

Cosmos 2297 - Pass Details

Date: 09 May 2021
Orbit: 837 x 857 km, 71.0° (Epoch: 24 June)

Event Time Altitude Azimuth Distance (km) Brightness Sun altitude
Exits shadow 04:50:50 62° 326° (NW) 949 4.0 -31.0°
Drops below altitude 10° 04:55:59 10° 18° (NNE) 2,476 6.8 -31.1°
Sets 04:58:27 0° 22° (NNE) 3,412 7.7 -31.2°
